Date,TemperatureHighF,TemperatureAvgF,TemperatureLowF,DewpointHighF,DewpointAvgF,DewpointLowF,HumidityHigh,HumidityAvg,HumidityLow,PressureMaxIn,PressureMinIn,WindSpeedMaxMPH,WindSpeedAvgMPH,GustSpeedMaxMPH,PrecipitationSumIn
2013-1-1,77.5,64.9,54.3,58.3,44.3,39.9,79,50,27,30.21,30.03,7,1,15,0.00
2013-1-2,79.2,69.1,60.4,68.4,55.3,42.8,86,63,40,30.06,30.00,6,2,10,0.00
2013-1-3,70.7,65.7,60.3,67.3,60.8,57.4,92,84,72,30.18,30.03,3,1,8,0.00
2013-1-4,61.3,59.0,56.5,59.2,56.8,54.1,94,92,91,30.21,30.15,2,0,7,0.00
2013-1-5,69.8,62.0,55.6,56.7,50.0,43.9,93,68,40,30.21,30.18,3,0,6,0.00
2013-1-6,76.5,66.4,61.9,71.4,59.4,53.8,100,79,57,30.21,30.09,3,1,10,0.00
2013-1-7,66.6,63.2,59.4,62.6,54.6,43.0,92,76,48,30.21,30.12,4,1,7,0.00
2013-1-8,80.6,70.0,62.1,66.7,56.6,45.7,93,67,31,30.21,30.12,3,1,5,0.00
2013-1-9,83.1,74.5,69.3,70.7,58.1,45.9,94,61,30,30.21,30.18,4,1,7,0.00
2013-1-10,80.6,73.8,69.3,69.4,56.4,44.6,93,60,29,30.21,30.21,4,1,7,0.00
2013-1-11,84.0,72.8,65.1,66.4,49.9,42.1,84,48,24,30.21,30.12,4,1,9,0.00
2013-1-12,82.6,72.6,66.2,65.7,55.6,45.3,87,59,29,30.18,30.09,4,1,10,0.00
2013-1-13,81.3,72.4,66.4,66.0,53.8,43.9,83,55,30,30.18,30.06,4,1,8,0.00
2013-1-14,81.9,71.2,64.6,64.6,50.2,37.0,82,52,23,30.18,30.12,5,1,10,0.00
2013-1-15,81.9,70.2,61.5,64.9,50.0,41.5,79,52,26,30.15,30.06,6,1,11,0.00
2013-1-16,84.0,71.3,63.3,66.7,50.9,37.9,81,53,21,30.12,30.03,5,1,10,0.00
2013-1-17,70.3,63.2,54.9,65.7,51.0,31.5,87,67,39,30.18,30.00,6,3,17,0.00
2013-1-18,62.2,54.8,44.1,40.1,32.3,23.5,47,42,35,30.21,30.18,4,1,11,0.00
2013-1-19,73.9,63.8,54.7,46.6,40.4,33.8,62,43,31,30.21,30.15,4,1,7,0.00
2013-1-20,74.7,65.8,60.6,56.5,48.0,38.7,79,55,33,30.18,30.06,3,0,7,0.00
2013-1-21,73.4,65.7,61.7,52.0,42.9,37.2,61,44,32,30.12,30.06,4,1,12,0.00
2013-1-22,67.1,60.3,53.4,37.8,25.7,18.7,42,27,20,30.21,30.09,3,1,7,0.00
2013-1-23,68.5,57.0,47.3,30.0,24.3,16.7,41,29,22,30.21,30.21,4,1,9,0.00
2013-1-24,70.0,57.4,46.6,47.3,34.1,27.3,66,43,24,30.21,30.21,3,1,10,0.00
2013-1-25,75.4,60.3,49.8,55.4,38.4,31.3,76,48,22,30.21,30.21,4,1,8,0.00
2013-1-26,73.9,62.6,52.2,57.7,44.1,38.8,76,53,31,30.21,30.21,4,1,12,0.00
2013-1-27,77.5,64.7,53.6,59.4,44.2,34.9,81,51,22,30.21,30.21,3,0,6,0.00
2013-1-28,80.2,70.5,64.2,63.5,51.1,40.6,89,55,25,30.21,30.21,4,1,7,0.00
2013-1-29,82.6,72.0,64.0,69.1,55.3,45.7,94,60,29,30.21,30.09,6,2,11,0.00
2013-1-30,80.6,73.1,67.5,62.8,55.5,45.5,79,57,30,30.09,29.91,10,5,20,0.00
2013-1-31,69.6,58.8,52.9,59.7,33.8,20.8,78,42,25,30.21,29.94,6,2,17,0.00
2013-2-1,67.8,56.6,47.7,29.7,23.6,16.2,37,28,20,30.21,30.21,4,1,10,0.00
2013-2-2,72.5,58.2,48.4,31.1,27.4,23.4,39,31,21,30.21,30.18,3,1,9,0.00
2013-2-3,71.2,57.9,46.9,44.2,34.1,25.9,58,42,28,30.21,30.12,4,1,11,0.00
2013-2-4,70.0,56.0,46.6,48.4,32.0,23.9,71,44,22,30.15,30.06,4,1,10,0.00
2013-2-5,77.0,60.7,47.8,44.4,33.4,28.6,65,38,21,30.12,30.00,6,1,12,0.00
2013-2-6,78.3,68.3,60.4,53.2,45.2,39.7,70,46,27,30.12,30.03,5,1,9,0.00
2013-2-7,80.6,70.2,63.3,65.1,55.6,43.9,86,63,30,30.06,29.88,9,3,20,0.00
2013-2-8,73.6,66.9,60.8,64.9,55.6,45.7,86,69,39,30.09,29.91,6,2,12,0.00
2013-2-9,76.1,64.6,56.7,52.3,43.8,33.8,79,51,22,30.21,30.09,3,1,9,0.00
2013-2-10,81.3,69.7,62.2,54.1,46.1,37.9,72,46,23,30.21,30.15,5,2,12,0.00
2013-2-11,82.4,71.9,64.9,61.3,52.9,46.6,77,54,30,30.21,30.09,7,2,15,0.00
2013-2-12,82.0,73.4,68.5,68.0,61.9,52.3,87,70,36,30.12,29.97,8,4,14,0.00
2013-2-13,80.4,71.6,61.7,71.4,63.7,51.8,94,77,53,30.00,29.88,8,4,17,0.00
2013-2-14,64.4,62.3,60.1,59.5,56.5,54.3,87,82,73,30.06,29.94,2,0,8,0.00
2013-2-15,68.0,59.9,56.3,58.1,48.2,34.3,91,69,36,30.09,29.97,3,0,10,0.00
2013-2-16,68.0,58.4,51.8,45.0,33.5,20.5,60,41,26,30.15,29.97,6,3,17,0.00
2013-2-17,55.4,47.8,40.8,20.5,14.4,8.6,34,26,22,30.21,30.15,4,2,12,0.00
2013-2-18,69.1,52.6,38.1,35.4,22.7,14.5,45,32,22,30.21,30.21,4,1,9,0.00
2013-2-19,77.2,64.3,51.6,52.0,41.0,33.8,67,44,24,30.21,30.09,7,2,14,0.00
2013-2-20,77.9,65.9,59.7,62.4,50.0,39.2,88,60,32,30.15,30.03,3,0,10,0.00
2013-2-21,82.4,68.7,59.5,57.2,48.5,40.3,79,51,27,30.12,30.00,6,1,11,0.00
2013-2-22,82.9,72.0,63.3,69.3,56.2,48.4,88,61,31,30.09,30.00,8,3,13,0.00
2013-2-23,78.1,72.6,69.4,70.9,65.5,61.7,89,79,61,30.03,29.94,7,4,16,0.00
2013-2-24,79.2,71.9,68.9,74.8,65.2,59.4,96,80,59,29.97,29.88,7,2,12,0.00
2013-2-25,82.9,74.4,68.7,71.4,60.9,48.7,93,67,32,29.91,29.79,7,2,13,0.00
2013-2-26,75.2,71.9,67.3,70.5,62.4,54.1,89,73,56,29.91,29.74,7,3,18,0.00
2013-2-27,72.5,65.7,61.0,55.6,44.2,35.4,66,47,28,30.00,29.88,4,1,11,0.00
2013-2-28,75.0,65.1,58.6,45.5,37.0,32.2,52,36,22,30.03,29.94,4,2,12,0.00
2013-3-1,64.6,59.1,54.1,32.2,26.6,21.6,36,29,24,30.03,29.94,4,2,14,0.00
2013-3-2,60.6,55.4,50.0,27.9,22.7,20.3,37,28,24,30.09,30.00,6,3,20,0.00
2013-3-3,56.7,49.6,44.2,22.3,18.2,13.5,33,28,26,30.18,30.00,6,3,17,0.00
2013-3-4,65.8,53.6,42.8,26.2,20.3,12.9,39,27,20,30.21,30.15,4,1,10,0.00
2013-3-5,75.4,59.8,43.7,55.2,36.9,23.7,68,45,22,30.18,30.06,6,2,12,0.00
2013-3-6,66.9,60.1,54.1,59.2,33.3,22.3,77,40,24,30.15,29.97,6,4,15,0.00
2013-3-7,62.8,53.7,46.0,28.4,22.7,17.1,43,30,21,30.21,30.15,4,1,12,0.00
2013-3-8,71.6,56.9,44.1,43.5,30.9,26.6,68,40,22,30.21,30.15,3,1,10,0.00
2013-3-9,74.1,61.7,51.6,45.5,34.2,28.6,67,38,21,30.21,30.15,4,1,8,0.00
2013-3-10,79.5,67.2,59.2,50.7,39.7,33.3,68,39,20,30.18,30.06,4,2,10,0.00
2013-3-11,78.4,69.1,61.3,55.2,43.7,35.1,72,42,21,30.12,29.91,7,3,16,0.00
2013-3-12,69.8,65.4,59.5,65.3,52.2,39.0,91,65,42,30.06,29.88,6,3,15,0.00
2013-3-13,70.5,62.4,57.2,41.4,30.2,24.6,50,31,22,30.21,30.06,4,2,13,0.00
2013-3-14,64.6,58.4,52.2,35.6,23.4,16.5,40,26,18,30.21,30.18,4,2,11,0.00
2013-3-15,70.7,57.7,44.8,38.1,26.5,22.3,53,32,19,30.21,30.18,4,1,10,0.00
2013-3-16,77.5,61.2,47.7,50.4,33.7,27.0,68,39,18,30.21,30.09,6,2,11,0.00
2013-3-17,75.7,64.2,53.6,55.8,43.3,37.4,76,49,25,30.15,30.00,6,1,12,0.00
2013-3-18,73.2,68.2,62.1,61.0,55.2,44.1,79,64,46,30.06,29.91,5,2,12,0.00
2013-3-19,86.0,71.2,63.1,66.2,52.9,42.1,87,58,24,30.03,29.91,5,1,12,0.00
2013-3-20,71.6,67.0,61.0,65.7,57.2,52.3,85,72,53,30.00,29.82,5,1,12,0.00
2013-3-21,68.0,60.0,50.2,55.8,32.9,22.1,83,41,20,30.00,29.91,4,1,11,0.00
2013-3-22,74.8,61.6,48.4,62.2,38.6,26.6,86,46,21,30.00,29.91,5,1,10,0.00
2013-3-23,80.2,71.3,65.8,76.6,66.3,62.1,100,85,57,30.00,29.82,7,2,13,0.00
2013-3-24,78.3,73.4,70.0,72.7,67.6,63.5,94,83,66,29.85,29.68,8,4,19,0.00
2013-3-25,69.8,63.3,58.8,63.3,37.4,24.1,80,42,23,30.09,29.76,5,4,17,0.00
2013-3-26,59.9,55.9,51.1,29.5,22.0,18.3,32,27,24,30.21,30.06,6,3,18,0.00
2013-3-27,59.2,51.3,43.9,23.7,19.5,13.6,37,28,25,30.21,30.21,5,2,12,0.00
2013-3-28,69.4,57.1,46.9,31.3,25.4,18.1,51,31,17,30.21,30.21,4,1,11,0.00
2013-3-29,76.1,60.8,49.1,43.0,30.7,26.6,58,34,18,30.21,30.21,4,1,10,0.00
2013-3-30,78.3,64.1,51.6,48.0,36.1,30.0,61,38,20,30.21,30.15,6,2,13,0.00
2013-3-31,78.1,67.4,57.4,56.3,43.2,34.2,74,45,22,30.18,30.03,7,2,14,0.00
2013-4-1,83.5,73.1,67.6,62.2,52.3,45.9,74,50,29,30.06,29.97,8,3,15,0.00
2013-4-2,84.0,71.2,64.2,62.8,52.1,41.4,79,55,26,30.12,30.03,4,1,10,0.00
2013-4-3,83.7,72.7,64.6,67.1,54.3,40.3,88,56,24,30.09,29.97,6,2,12,0.00
2013-4-4,71.8,69.9,67.6,68.2,64.4,58.1,91,83,68,30.06,29.88,6,2,12,0.00
2013-4-5,72.0,67.1,62.6,63.7,54.6,42.4,86,67,36,30.03,29.82,5,2,15,0.00
2013-4-6,74.1,64.8,56.8,50.5,42.8,37.0,60,46,29,30.12,30.03,4,1,11,0.00
2013-4-7,83.8,70.5,62.2,59.7,45.9,35.8,82,46,20,30.18,30.06,4,1,10,0.00
2013-4-8,87.3,74.2,66.7,56.5,44.8,37.0,67,37,18,30.15,30.06,4,2,10,0.00
2013-4-9,84.2,74.4,65.7,64.8,49.2,40.8,76,43,23,30.18,30.09,5,2,9,0.00
2013-4-10,88.3,76.0,68.0,61.9,49.4,41.0,76,42,20,30.15,30.00,5,1,10,0.00
2013-4-11,88.7,78.5,73.0,68.5,58.3,48.4,83,53,28,30.00,29.82,8,3,17,0.00
2013-4-12,78.3,76.2,72.1,71.6,67.6,60.8,86,75,56,29.94,29.79,9,4,20,0.00
2013-4-13,87.6,75.8,69.3,68.4,55.5,44.6,82,54,26,30.00,29.91,5,1,11,0.00
2013-4-14,84.0,75.2,68.5,67.3,58.2,46.9,79,57,35,30.03,29.88,7,3,15,0.00
2013-4-15,88.5,77.0,68.9,56.1,48.8,44.6,58,39,23,30.09,29.94,4,1,10,0.00
2013-4-16,92.5,79.7,70.0,66.7,53.5,43.5,82,44,19,30.15,30.06,4,2,9,0.00
2013-4-17,88.9,79.0,70.9,63.7,49.1,38.1,75,39,18,30.18,30.03,5,2,9,0.00
2013-4-18,88.3,78.8,70.7,63.5,52.2,43.2,75,43,22,30.06,29.97,5,2,10,0.00
2013-4-19,88.3,80.0,73.6,70.7,59.5,46.9,82,54,25,30.03,29.94,8,4,19,0.00
2013-4-20,77.7,69.9,62.6,66.7,53.2,43.9,73,57,37,30.18,30.00,5,1,17,0.00
2013-4-21,80.2,69.7,62.2,66.4,54.6,48.0,86,61,33,30.15,30.06,4,2,9,0.00
2013-4-22,79.9,71.7,67.6,69.4,58.7,46.8,93,68,32,30.09,30.00,4,1,9,0.00
2013-4-23,84.2,73.5,66.2,59.4,51.0,39.7,76,49,25,30.15,30.03,4,2,10,0.00
2013-4-24,87.3,74.4,66.2,59.0,47.8,37.0,72,42,19,30.15,30.09,4,2,11,0.00
2013-4-25,86.4,75.1,65.7,65.7,52.7,45.5,76,49,27,30.21,30.12,4,1,12,0.00
2013-4-26,88.5,76.9,67.8,63.0,51.6,42.1,68,44,21,30.21,30.18,4,1,12,0.00
2013-4-27,86.4,77.3,71.6,65.1,51.8,38.8,77,44,20,30.21,30.12,4,2,10,0.00
2013-4-28,87.8,77.5,70.2,56.1,47.6,38.5,59,37,18,30.15,30.00,5,2,10,0.00
2013-4-29,84.0,77.3,70.7,57.7,49.5,43.7,55,39,27,30.06,29.94,6,2,11,0.00
2013-4-30,89.8,77.4,68.9,67.3,55.9,42.6,88,53,20,30.03,29.94,4,1,10,0.00
2013-5-1,74.1,71.8,68.0,70.7,66.3,63.9,91,83,73,30.03,29.94,4,2,7,0.00
2013-5-2,78.8,72.0,66.9,66.7,62.7,56.7,91,74,49,30.00,29.85,4,1,10,0.00
2013-5-3,82.4,74.5,69.3,72.7,59.8,48.4,87,64,33,29.85,29.76,4,1,12,0.00
2013-5-4,80.4,73.3,67.8,66.4,55.8,48.0,77,56,34,29.85,29.71,6,2,14,0.00
2013-5-5,76.6,70.2,64.8,59.4,40.4,31.1,75,37,21,29.97,29.82,5,3,13,0.00
2013-5-6,76.8,70.5,66.6,46.0,38.4,32.9,42,32,21,30.03,29.91,5,2,13,0.00
2013-5-7,80.1,70.5,62.8,49.3,39.6,34.9,52,33,21,30.09,30.00,6,3,15,0.00
2013-5-8,80.6,71.5,62.2,58.8,44.4,37.6,67,40,22,30.15,30.06,5,2,12,0.00
2013-5-9,84.7,72.6,63.3,62.1,48.6,40.8,72,45,23,30.18,30.09,5,1,11,0.00
2013-5-10,90.3,76.8,65.7,69.1,49.8,38.7,84,44,18,30.15,30.03,6,2,12,0.00
2013-5-11,89.2,78.4,72.5,71.2,59.0,47.5,79,54,24,30.09,30.03,6,2,13,0.00
2013-5-12,87.8,77.8,71.2,71.4,57.0,46.0,79,52,24,30.09,29.97,5,1,11,0.00
2013-5-13,83.7,75.3,69.6,62.4,42.9,30.2,67,35,17,30.18,30.03,5,1,14,0.00
2013-5-14,83.1,72.7,62.6,41.7,29.5,24.6,35,21,14,30.21,30.15,5,1,14,0.00
2013-5-15,87.4,74.8,66.0,48.4,39.9,35.4,45,30,18,30.21,30.09,4,1,12,0.00
2013-5-16,88.3,76.7,68.2,56.3,45.2,36.0,58,35,18,30.15,30.03,4,1,9,0.00
2013-5-17,88.2,78.0,70.2,56.5,48.0,39.4,57,37,19,30.12,30.06,4,2,11,0.00
2013-5-18,88.9,79.4,72.7,68.9,52.9,39.9,78,43,19,30.12,30.06,5,1,13,0.00
2013-5-19,89.8,79.4,70.3,70.3,53.0,41.2,76,44,19,30.12,30.00,4,1,10,0.00
2013-5-20,90.9,80.0,73.2,65.3,53.3,41.2,67,42,21,30.09,30.00,5,1,12,0.00
2013-5-21,89.8,78.1,71.8,67.5,58.4,43.5,78,55,22,30.06,29.94,5,1,11,0.00
2013-5-22,89.1,79.0,72.7,68.4,58.9,46.9,78,54,24,30.00,29.91,5,1,11,0.00
2013-5-23,89.6,80.3,72.9,68.0,56.9,48.7,73,48,25,30.03,29.94,5,1,12,0.00
2013-5-24,90.3,82.0,75.6,67.5,55.2,39.7,70,44,19,30.12,30.00,5,2,12,0.00
2013-5-25,92.1,82.4,74.1,57.2,44.3,34.5,53,29,14,30.21,30.09,4,2,8,0.00
2013-5-26,88.9,78.9,71.6,47.5,38.2,28.4,41,25,13,30.21,30.12,5,2,11,0.00
2013-5-27,89.6,79.3,70.0,57.2,43.5,38.1,59,30,17,30.21,30.06,4,2,10,0.00
2013-5-28,92.3,79.6,72.0,63.7,55.4,41.4,72,47,18,30.18,30.03,6,2,10,0.00
2013-5-29,87.1,79.3,74.1,68.7,57.0,46.4,80,50,28,30.12,30.06,5,3,12,0.00
2013-5-30,89.2,81.1,75.6,68.2,56.0,46.4,77,46,24,30.12,30.03,6,4,13,0.00
2013-5-31,90.7,80.5,75.2,60.1,54.1,45.9,59,42,22,30.09,30.03,4,3,10,0.00
2013-6-1,91.4,80.5,73.4,70.2,59.7,45.3,83,53,21,30.09,29.97,5,2,11,0.00
2013-6-2,89.6,80.4,74.1,78.3,63.8,51.3,92,62,29,30.03,29.91,5,1,11,0.00
2013-6-3,86.5,80.1,75.4,73.6,62.3,52.5,81,57,33,30.03,29.91,6,2,13,0.00
2013-6-4,87.1,80.6,75.9,71.2,59.6,45.7,78,52,26,30.03,29.97,7,2,12,0.00
2013-6-5,85.1,78.8,74.5,69.1,61.4,50.7,82,57,31,30.03,29.91,4,1,8,0.00
2013-6-6,80.6,75.4,21.2,77.7,67.7,-26.7,100,80,10,29.91,29.68,10,5,22,0.83
2013-6-7,87.6,83.2,76.6,64.0,54.8,50.7,64,39,31,30.00,29.82,6,3,12,0.00
2013-6-8,89.8,80.3,73.9,78.3,68.5,56.3,100,72,34,30.12,30.00,5,2,10,4.37
2013-6-9,89.4,79.4,73.6,78.8,67.7,50.9,100,73,27,30.12,30.03,4,1,10,0.40
2013-6-10,88.2,81.1,76.3,76.8,64.0,52.2,96,60,30,30.12,30.03,4,1,12,0.00
2013-6-11,89.4,81.4,75.9,74.7,65.3,51.3,84,61,28,30.12,30.03,2,0,9,0.00
2013-6-12,90.0,81.7,74.5,76.6,62.8,50.9,89,58,28,30.12,30.03,4,1,11,0.00
2013-6-13,90.9,82.6,75.9,74.3,60.0,46.0,82,51,22,30.09,29.94,4,2,11,0.00
2013-6-14,89.6,82.9,79.0,62.1,57.5,51.1,55,43,28,30.00,29.91,6,2,14,0.00
2013-6-15,90.3,83.4,79.5,69.1,62.0,54.1,65,50,30,30.09,29.94,4,1,10,0.00
2013-6-16,90.5,83.7,79.0,70.5,62.3,54.3,74,51,32,30.12,30.03,5,1,12,0.00
2013-6-17,93.7,84.7,77.9,73.8,59.7,48.6,75,47,23,30.12,30.03,5,2,12,0.00
2013-6-18,93.6,84.6,77.0,73.4,59.0,49.3,75,45,23,30.09,30.00,6,2,12,0.00
2013-6-19,94.1,84.8,78.3,74.7,60.3,49.1,76,47,23,30.06,30.00,5,1,11,0.00
2013-6-20,90.9,82.3,76.5,72.1,59.7,47.3,73,49,24,30.12,30.03,4,1,10,0.00
2013-6-21,86.9,79.4,75.0,68.0,60.6,51.6,68,54,31,30.15,30.06,4,0,10,0.00
2013-6-22,89.6,81.1,75.0,71.4,57.1,42.6,78,48,21,30.15,30.06,4,1,10,0.00
2013-6-23,93.9,81.6,76.3,69.8,60.3,43.0,75,53,18,30.15,30.09,5,1,10,0.00
2013-6-24,92.1,81.9,76.3,71.2,61.4,43.2,80,55,19,30.21,30.09,3,1,8,0.00
2013-6-25,91.2,81.9,74.5,75.9,61.1,43.7,89,56,20,30.18,30.06,5,1,10,0.00
2013-6-26,89.6,80.0,75.9,76.5,66.2,50.5,88,66,32,30.09,30.03,4,1,9,0.00
2013-6-27,91.0,81.8,73.9,77.4,62.7,51.6,86,58,27,30.09,29.97,4,1,11,0.00
2013-6-28,90.9,83.4,76.6,74.3,60.8,51.8,79,50,29,30.00,29.88,7,2,14,0.00
2013-6-29,83.5,80.2,77.5,71.2,65.4,57.9,73,61,45,29.91,29.82,5,2,13,0.00
2013-6-30,88.2,81.7,77.0,72.7,63.5,54.5,77,57,32,29.91,29.82,7,3,16,0.00
2013-7-1,78.3,76.0,73.4,74.3,70.8,65.8,90,84,67,30.03,29.85,6,2,12,0.00
2013-7-2,87.3,78.2,73.0,79.2,65.0,48.9,95,69,30,30.12,29.97,5,2,11,0.04
2013-7-3,88.0,77.9,73.8,71.6,65.5,52.0,89,68,30,30.12,30.06,6,1,13,0.00
2013-7-4,89.4,78.1,73.6,73.2,64.6,49.8,92,68,28,30.18,30.09,6,1,13,0.52
2013-7-5,88.7,77.8,73.6,75.0,66.8,49.5,92,73,28,30.15,30.09,6,1,12,0.63
2013-7-6,89.8,80.5,74.8,75.6,63.3,43.0,91,63,20,30.15,30.06,4,1,9,0.04
2013-7-7,92.1,81.5,76.6,72.7,61.5,43.3,82,56,19,30.15,30.06,5,1,10,0.12
2013-7-8,91.2,81.0,76.5,74.1,63.9,44.2,87,62,20,30.18,30.09,4,1,10,0.99
2013-7-9,90.0,81.4,74.7,75.0,59.6,43.2,88,53,20,30.18,30.06,4,1,10,0.00
2013-7-10,89.6,81.3,75.4,70.9,57.5,47.8,74,47,26,30.12,30.00,4,1,9,0.00
2013-7-11,87.3,79.0,75.6,76.3,67.2,57.2,87,69,40,30.06,29.97,5,1,11,0.63
2013-7-12,88.7,80.1,75.4,76.1,64.7,49.8,84,63,27,30.00,29.91,4,1,9,0.31
2013-7-13,82.0,77.5,74.8,77.4,69.0,61.9,88,76,56,30.00,29.94,2,0,7,0.36
2013-7-14,83.7,78.0,74.7,74.5,69.5,63.7,89,76,53,30.09,29.97,2,0,6,0.55
2013-7-15,88.7,79.3,74.7,69.8,62.7,45.5,81,60,23,30.15,30.03,3,1,8,0.00
2013-7-16,90.1,79.7,76.1,70.9,60.7,43.3,82,56,20,30.18,30.09,6,2,12,0.00
2013-7-17,91.2,78.4,72.0,72.7,64.3,44.4,87,67,20,30.18,30.09,5,1,12,0.51
2013-7-18,87.1,78.1,73.9,71.6,63.2,48.4,87,65,28,30.15,30.06,5,1,12,0.00
2013-7-19,86.7,77.9,74.3,71.8,65.6,51.4,88,69,31,30.15,30.06,6,1,15,0.55
2013-7-20,89.1,79.2,74.3,76.5,65.5,48.4,89,68,25,30.15,30.06,5,1,9,0.00
2013-7-21,91.0,82.7,75.2,75.7,61.3,51.8,82,52,27,30.15,30.06,5,2,11,0.00
2013-7-22,90.9,83.9,77.9,75.6,61.0,51.6,81,50,28,30.15,30.09,6,2,12,0.00
2013-7-23,88.9,82.9,78.4,67.1,58.2,50.7,62,45,28,30.12,30.00,6,2,12,0.00
2013-7-24,89.6,84.0,80.6,65.7,58.1,51.8,57,43,28,30.03,29.94,6,3,16,0.00
2013-7-25,88.9,83.3,77.7,68.2,60.6,52.0,72,47,29,30.03,29.91,6,3,15,0.75
2013-7-26,90.3,82.6,77.5,76.6,65.1,46.9,85,60,23,30.06,29.97,4,1,11,0.04
2013-7-27,91.2,83.9,77.9,74.7,59.3,43.3,81,48,20,30.03,29.97,4,1,12,0.00
2013-7-28,90.1,82.6,77.4,73.9,59.4,49.5,77,48,28,30.09,29.97,4,1,9,0.00
2013-7-29,92.7,82.3,75.2,73.4,59.8,40.3,79,53,18,30.15,30.06,3,0,7,0.04
2013-7-30,78.6,78.5,78.4,69.3,68.7,68.2,73,72,71,30.18,30.18,0,0,0,0.00
2013-7-31,92.5,82.4,76.3,75.2,61.2,42.3,82,54,18,30.18,30.03,4,1,10,0.00
2013-8-1,87.4,81.3,76.8,74.5,63.8,52.2,76,57,30,30.09,29.97,3,1,10,0.31
2013-8-2,92.1,83.0,75.9,74.5,60.3,48.4,78,51,23,30.09,29.97,5,1,11,0.00
2013-8-3,91.4,84.2,77.7,74.7,60.4,50.0,76,48,27,30.12,30.03,5,2,12,0.00
2013-8-4,92.1,84.4,79.5,74.3,63.8,52.2,74,52,27,30.12,30.03,5,1,12,0.00
2013-8-5,91.9,85.3,79.7,73.9,61.6,52.3,73,47,27,30.06,29.97,5,1,11,0.00
2013-8-6,89.6,81.2,77.7,78.8,68.2,52.5,85,66,35,30.03,29.91,5,0,10,0.43
2013-8-7,91.8,81.4,76.6,73.9,64.7,46.8,81,61,22,30.00,29.94,3,0,10,0.12
2013-8-8,91.6,81.4,75.6,75.7,64.5,45.0,86,62,21,30.06,29.94,5,1,10,1.03
2013-8-9,91.2,80.5,75.2,73.9,63.9,43.2,83,62,19,30.09,30.00,5,0,17,0.71
2013-8-10,92.5,82.6,75.2,73.2,60.0,43.2,84,54,19,30.15,30.06,3,1,8,0.00
2013-8-11,94.3,85.0,77.9,71.8,57.0,42.4,74,41,18,30.18,30.09,3,0,8,0.00
2013-8-12,92.7,84.3,77.7,73.6,62.2,47.5,76,50,22,30.15,30.03,4,1,10,0.00
2013-8-13,93.0,85.0,78.4,70.0,58.8,47.8,69,44,23,30.09,29.97,5,1,10,0.00
2013-8-14,93.0,84.8,78.8,73.6,59.3,47.5,71,45,22,30.03,29.94,4,1,10,0.00
2013-8-15,93.4,84.2,77.9,70.2,59.3,45.5,69,46,20,30.06,29.97,6,1,11,0.00
2013-8-16,90.3,84.4,79.7,68.5,57.5,44.1,65,43,21,30.06,30.00,5,1,10,0.00
2013-8-17,93.0,82.8,77.2,74.8,61.7,44.1,82,54,22,30.12,30.00,5,1,9,0.36
2013-8-18,90.7,81.5,77.4,75.4,65.6,49.3,83,62,25,30.12,30.03,4,1,8,0.16
2013-8-19,92.8,81.0,74.5,74.5,63.5,41.5,85,62,18,30.09,29.97,6,1,15,0.00
2013-8-20,91.2,80.1,74.7,75.0,62.3,45.1,84,60,21,30.12,30.03,4,0,8,0.00
2013-8-21,91.6,80.8,76.5,73.0,64.2,47.7,82,61,23,30.15,30.00,2,0,7,0.00
2013-8-22,89.8,81.2,21.2,73.0,65.4,-26.7,83,63,10,30.12,30.00,5,1,59,0.00